* Astronomy

Members Login
Username 
 
Password 
    Remember Me  
Post Info TOPIC: Asteroid 2009 EV = 2008 PG1


L

Posts: 131433
Date:
Asteroid 2009 EV = 2008 PG1
Permalink  
 


Orbital elements:
2009 EV = 2008 PG1                                  PHA, Earth MOID = 0.0305 AU
Epoch 2012 Mar. 14.0 TT = JDT 2456000.5                 MPC
M 190.33249              (2000.0)            P               Q
n   0.43372863     Peri.  250.09748     +0.84914607     -0.49161638
a   1.7284520      Node   138.70492     +0.52309011     +0.83332312
e   0.5233368      Incl.   17.00841     -0.07299105     +0.25275662
P   2.27           H   19.9           G   0.15           U   5

MPEC 2012 - J29



__________________
Page 1 of 1  sorted by
 
Quick Reply

Please log in to post quick replies.



Create your own FREE Forum
Report Abuse
Powered by ActiveBoard